Home > Weather > Toulouse > Past weeks

Flag for France Weather for the Past 2 Weeks in Toulouse, France

Now
43 °F

Clear.


Feels Like: 43 °F
Forecast: 41 / 47 °F
Wind: 2 mph from Southeast

Location: Toulouse / Blagnac

Current Time: Feb 9, 2016 at 3:34:01 AM

Latest Report: Feb 9, 2016 at 2:30 AM


Visibility: 10 mi

Pressure: 29.98 "Hg

Humidity: 87%

Dew point: 39 °F

Location of ToulouseLocation

Historic Weather in Toulouse — Graph

°F

Toulouse Temperature Yesterday

Maximum temperature yesterday: 66 °F (at 2:30 PM)
Minimum temperature yesterday: 43 °F (at 2:00 AM)
Average temperature yesterday: 53 °F

High & Low Weather Summary for the Past Weeks

 TemperatureHumidityPressure
High66 °F (Feb 8, 2:30 PM)100% (Jan 26, 4:00 AM)30.69 "Hg (Jan 26, 4:00 AM)
Low32 °F (Feb 5, 7:30 AM)37% (Feb 8, 2:30 PM)29.65 "Hg (Feb 7, 2:30 AM)
Average50 °F80%30.33 "Hg
* Reported Jan 25 2:00 AM — Feb 9 2:00 AM, Toulouse, Weather by CustomWeather, © 2016

Note: Actual official high and low records may vary slightly from our data, if they occured in-between our weather recording intervals... More about our weather records

Advertising

Toulouse Weather History for the Previous 24 Hours

 ConditionsComfort  
Time TempWeatherWind HumidityBarometerVisibility
2:00 AM
Tue, Feb 9
43 °FClear.5 mph87%30.01 "Hg10 mi
1:30 AM43 °FClear.3 mph87%30.01 "Hg10 mi
1:00 AM43 °FClear.6 mph81%30.01 "Hg10 mi
12:30 AM45 °FClear.2 mph81%30.04 "Hg10 mi
12:00 AM48 °FClear.1 mph76%30.07 "Hg10 mi
11:30 PM
Mon, Feb 8
48 °FClear.1 mph76%30.07 "Hg10 mi
11:00 PM48 °FClear.3 mph76%30.07 "Hg10 mi
10:30 PM48 °FClear.5 mph76%30.07 "Hg10 mi
10:00 PM50 °FClear.1 mph71%30.07 "Hg10 mi
9:30 PM52 °FClear.2 mph72%30.07 "Hg10 mi
9:00 PM54 °FClear.1 mph67%30.09 "Hg10 mi
8:30 PM55 °FClear.2 mph59%30.09 "Hg10 mi
8:00 PM57 °FPassing clouds.6 mph55%30.09 "HgN/A
7:30 PM55 °FClear.6 mph59%30.09 "Hg10 mi
7:00 PM57 °FClear.3 mph51%30.09 "Hg10 mi
6:30 PM59 °FPartly cloudy.3 mph51%30.09 "HgN/A
6:00 PM59 °FPassing clouds.5 mph51%30.07 "HgN/A
5:30 PM61 °FPassing clouds.5 mph48%30.07 "HgN/A
5:00 PM63 °FSunny.12 mph45%30.09 "Hg10 mi
4:30 PM64 °FSunny.18 mph40%30.07 "Hg10 mi
4:00 PM64 °FSunny.13 mph40%30.07 "Hg10 mi
3:30 PM64 °FSunny.20 mph40%30.07 "Hg10 mi
3:00 PM66 °FSunny.25 mph40%30.07 "Hg10 mi
2:30 PM66 °FPassing clouds.20 mph37%30.07 "HgN/A
2:00 PM64 °FPassing clouds.16 mph43%30.07 "HgN/A
1:30 PM64 °FSunny.15 mph43%30.07 "Hg10 mi
1:00 PM64 °FPassing clouds.12 mph43%30.09 "HgN/A
12:30 PM63 °FPassing clouds.8 mph49%30.09 "HgN/A
12:00 PM59 °FSunny.8 mph51%30.09 "Hg10 mi
11:30 AM57 °FSunny.8 mph55%30.09 "Hg10 mi
11:00 AM57 °FSunny.7 mph55%30.09 "Hg10 mi
10:30 AM55 °FPassing clouds.7 mph59%30.09 "HgN/A
10:00 AM50 °FSunny.5 mph67%30.09 "Hg10 mi
9:30 AM46 °FPassing clouds.8 mph76%30.09 "HgN/A
9:00 AM45 °FSunny.8 mph76%30.09 "Hg10 mi
8:30 AM43 °FSunny.3 mph76%30.07 "Hg10 mi
8:00 AM45 °FClear.8 mph76%30.07 "Hg10 mi
7:30 AM45 °FClear.7 mph76%30.07 "Hg10 mi
7:00 AM43 °FClear.9 mph76%30.04 "Hg10 mi
6:30 AM45 °FClear.6 mph76%30.04 "Hg10 mi
6:00 AM43 °FClear.9 mph81%30.04 "Hg10 mi
5:30 AM43 °FClear.5 mph76%30.04 "Hg10 mi
5:00 AM43 °FClear.7 mph76%30.04 "Hg10 mi
4:30 AM43 °FClear.7 mph81%30.04 "Hg10 mi
4:00 AM43 °FClear.5 mph81%30.07 "Hg10 mi
3:30 AM43 °FClear.7 mph81%30.07 "Hg10 mi
3:00 AM43 °FClear.6 mph81%30.07 "Hg10 mi
Weather by CustomWeather, © 2016

See weather overviewHow to use our weather pages